Location: Albany
(35.0170°S, 117.8920°E)
Time: 02:34:05
(UTC+08:00)

Vanguard 1 - Pass Details

Date: 02 February 2021
Orbit: 649 x 3833 km, 34.2° (Epoch: 25 February)

Event Time Altitude Azimuth Distance (km) Brightness Sun altitude
Rises 04:47:38 0° 266° (W) 3,105 - -8.5°
Exits shadow 04:50:06 - 279° (W) 2,196 11.3 -8.0°
Reaches altitude 10° 04:50:28 10° 281° (WNW) 2,076 11.1 -8.0°
Maximum altitude 04:53:56 22° 333° (NNW) 1,435 10.5 -7.3°
Drops below altitude 10° 04:57:36 10° 24° (NNE) 2,207 11.9 -6.7°
Sets 05:00:45 0° 40° (NE) 3,366 13.0 -6.1°
